User: anonymous   Login
Location: *
(51.4660°N, 0.3360°W)
Time: 03:03:45
(UTC+00:00)
Language:

ASTEX 1 - Orbit

View from above orbital plane
View from above orbital plane
View from above satellite
View from above satellite

Ground track
Ground track

The orbit data is extracted from the following two-line orbital elements,

1  5560U 71089A   19324.03146727  .00000098  00000-0  26736-4 0  9995
2  5560  92.7103 129.1662 0013938 278.6466  81.3159 14.48040820529318
Epoch (UTC): 20 November 2019 00:45:18
Eccentricity: 0.0013938
inclination: 92.7103°
perigee height: 722 km
apogee height: 742 km
right ascension of ascending node: 129.1662°
argument of perigee: 278.6466°
revolutions per day: 14.48040820
mean anomaly at epoch: 81.3159°
orbit number at epoch: 52931

The dashed part of the orbit path shows where the satellite is in the earth's shadow,  

DLR